Walbridge, OH

11:11 PM EDT on August 28, 2016 (GMT -0400)
Metcalf

Weather History for KTDZ - March, 2013

Change the Weather History Date:

Tuesday, March 19, 2013

  Actual Average (KTOL) Record (KTOL)
Temperature  
Mean Temperature 30 °F 39 °F  
Max Temperature 36 °F 48 °F 81 °F (2012)
Min Temperature 24 °F 29 °F 8 °F (1923)
Degree Days  
Heating Degree Days 35 26  
Month to date heating degree days 564  
Since 1 July heating degree days 5140  
Cooling Degree Days 0 0  
Month to date cooling degree days 0  
Year to date cooling degree days 0  
Moisture  
Dew Point 18 °F    
Average Humidity 64    
Maximum Humidity 87    
Minimum Humidity 48    
Precipitation  
Precipitation 0.00 in 0.08 in 0.43 in (1957)
Month to date precipitation 1.44  
Year to date precipitation 5.56  
Snow  
Snow 0.00 in 0.10 in - ()
Month to date snowfall 4.1  
Since 1 July snowfall 34.6  
Snow Depth -    
Sea Level Pressure  
Sea Level Pressure 29.83 in    
Wind  
Wind Speed 20 mph (WSW)    
Max Wind Speed 29 mph    
Max Gust Speed 38 mph    
Visibility 8 miles    
Events Snow    
T = Trace of Precipitation, MM = Missing Value Source: NWS Daily Summary

Daily Weather History Graph

Daily Weather History Graph

Search for Another Location

Airport or City:

Trip Planner

Search our weather history database for the weather conditions in past years. The results will help you decide how hot, cold, wet, or windy it might be!

Date:

Astronomy

Mar. 19, 2013 Rise Set
Actual Time 7:38 AM EDT 7:45 PM EDT
Civil Twilight 7:10 AM EDT 8:12 PM EDT
Nautical Twilight 6:38 AM EDT 8:45 PM EDT
Astronomical Twilight 6:05 AM EDT 9:18 PM EDT
Moon 12:23 PM EDT (3/19) 2:35 AM EDT (3/19)
Length of Visible Light 13h 02m
Length of Day
12h 06m
Waxing Crescent, 49% of the Moon is Illuminated
Mar 19
Waxing Crescent
Mar 19
First Quarter
Mar 27
Full
Apr 3
Last Quarter
Apr 10
New

Hourly Weather History & Observations

Time (EDT) Temp. Windchill Dew Point Humidity Pressure Visibility Wind Dir Wind Speed Gust Speed Precip Events Conditions
12:11 AM 35.6 °F 26.2 °F 30.2 °F 81% 29.69 in 10.0 mi WSW 15.0 mph - N/A   Overcast
12:43 AM 35.6 °F 25.9 °F 32.0 °F 87% 29.69 in 10.0 mi WSW 16.1 mph 20.7 mph N/A   Overcast
12:53 AM 36.0 °F 27.5 °F 32.0 °F 86% 29.71 in 10.0 mi SW 12.7 mph - N/A   Overcast
1:42 AM 35.6 °F 24.5 °F 28.4 °F 75% 29.68 in 10.0 mi WSW 20.7 mph 31.1 mph N/A   Mostly Cloudy
1:53 AM 35.1 °F 24.1 °F 27.0 °F 72% 29.70 in 10.0 mi WSW 19.6 mph 31.1 mph N/A   Overcast
2:53 AM 33.1 °F 20.6 °F 24.1 °F 70% 29.71 in 10.0 mi West 23.0 mph 33.4 mph N/A   Overcast
3:53 AM 30.0 °F 15.7 °F 19.9 °F 66% 29.75 in 10.0 mi WSW 26.5 mph 35.7 mph N/A   Overcast
4:53 AM 28.0 °F 13.9 °F 18.0 °F 66% 29.77 in 10.0 mi WSW 23.0 mph 31.1 mph N/A   Overcast
5:16 AM 28.4 °F 14.4 °F 17.6 °F 64% 29.75 in 10.0 mi WSW 23.0 mph 32.2 mph N/A   Overcast
5:29 AM 28.4 °F 14.7 °F 17.6 °F 64% 29.76 in 10.0 mi West 21.9 mph 27.6 mph N/A   Overcast
5:53 AM 27.0 °F 12.5 °F 16.0 °F 63% 29.78 in 10.0 mi West 23.0 mph 32.2 mph N/A   Overcast
6:53 AM 25.0 °F 10.2 °F 14.0 °F 63% 29.81 in 10.0 mi West 21.9 mph 32.2 mph 0.00 in   Overcast
7:36 AM 24.8 °F 9.0 °F 14.0 °F 64% 29.81 in 10.0 mi WSW 25.3 mph 38.0 mph N/A   Overcast
7:53 AM 25.0 °F 9.5 °F 12.9 °F 60% 29.83 in 10.0 mi WSW 24.2 mph 38.0 mph N/A   Overcast
8:53 AM 25.0 °F 10.2 °F 15.1 °F 66% 29.82 in 7.0 mi West 21.9 mph 31.1 mph 0.00 in Snow Light Snow
9:11 AM 24.8 °F 11.9 °F 17.6 °F 74% 29.80 in 2.0 mi WSW 16.1 mph 23.0 mph 0.00 in Snow Light Snow
9:28 AM 24.8 °F 11.9 °F 19.4 °F 80% 29.80 in 2.5 mi WSW 16.1 mph - 0.00 in Snow Light Snow
9:53 AM 25.0 °F 9.2 °F 17.1 °F 72% 29.82 in 6.0 mi West 25.3 mph 32.2 mph 0.00 in Snow Light Snow
10:04 AM 24.8 °F 9.0 °F 15.8 °F 69% 29.80 in 6.0 mi WSW 25.3 mph 28.8 mph 0.00 in Snow Light Snow
10:53 AM 26.1 °F 12.0 °F 14.0 °F 60% 29.84 in 9.0 mi West 20.7 mph 33.4 mph 0.00 in Snow Light Snow
11:06 AM 24.8 °F 8.7 °F 15.8 °F 69% 29.82 in 2.0 mi WSW 26.5 mph 35.7 mph 0.00 in Snow Light Snow
11:10 AM 24.8 °F 10.3 °F 17.6 °F 74% 29.82 in 1.8 mi West 20.7 mph 33.4 mph 0.00 in Snow Light Snow
11:21 AM 26.6 °F 12.7 °F 17.6 °F 69% 29.83 in 3.0 mi West 20.7 mph 31.1 mph 0.00 in Snow Light Snow
11:53 AM 27.0 °F 12.8 °F 16.0 °F 63% 29.85 in 6.0 mi WSW 21.9 mph 32.2 mph 0.00 in Snow Light Snow
12:03 PM 26.6 °F 12.7 °F 15.8 °F 64% 29.83 in 7.0 mi WSW 20.7 mph 34.5 mph 0.00 in Snow Light Snow
12:17 PM 26.6 °F 11.4 °F 15.8 °F 64% 29.84 in 9.0 mi WSW 25.3 mph 35.7 mph 0.00 in Snow Light Snow
12:53 PM 28.0 °F 12.8 °F 14.0 °F 56% 29.86 in 9.0 mi West 27.6 mph 36.8 mph 0.00 in   Overcast
1:53 PM 28.9 °F 13.7 °F 16.0 °F 58% 29.88 in 7.0 mi West 28.8 mph 34.5 mph 0.00 in Snow Light Snow
2:53 PM 32.0 °F 19.8 °F 16.0 °F 52% 29.89 in 9.0 mi West 20.7 mph 33.4 mph 0.00 in   Overcast
3:53 PM 30.9 °F 16.7 °F 15.1 °F 52% 29.90 in 10.0 mi WSW 27.6 mph 35.7 mph N/A   Overcast
4:53 PM 32.0 °F 18.4 °F 15.1 °F 50% 29.91 in 10.0 mi West 26.5 mph 38.0 mph 0.00 in   Mostly Cloudy
5:53 PM 33.1 °F 20.6 °F 15.1 °F 48% 29.92 in 10.0 mi West 23.0 mph 33.4 mph N/A   Scattered Clouds
6:53 PM 33.1 °F 21.2 °F 16.0 °F 50% 29.94 in 10.0 mi WSW 20.7 mph 32.2 mph N/A   Mostly Cloudy
7:53 PM 32.0 °F 20.5 °F 15.1 °F 50% 29.96 in 10.0 mi West 18.4 mph 26.5 mph N/A   Partly Cloudy
8:53 PM 30.9 °F 21.2 °F 15.1 °F 52% 29.97 in 10.0 mi West 12.7 mph - N/A   Clear
9:53 PM 30.9 °F 20.7 °F 15.1 °F 52% 29.99 in 10.0 mi West 13.8 mph - N/A   Clear
10:53 PM 30.0 °F 19.1 °F 12.9 °F 49% 29.99 in 10.0 mi West 15.0 mph 25.3 mph N/A   Clear
11:53 PM 28.9 °F 19.8 °F 14.0 °F 54% 29.99 in 10.0 mi West 10.4 mph - N/A   Clear